SKYSAT-C7

Last updated on Tue Oct 15 2024 00:02:25 GMT+0000 (Coordinated Universal Time)

1 42991U 17068E 24288.60617376 .00019646 00000+0 59650-3 0 9990 2 42991 97.3815 53.8810 0000522 52.5848 307.5442 15.34121432388848
UTC large
Height (km)
Speed (km/s)
/
Latitude / Longitude
Inclination (degrees)
Orbital Period (minutes)
Azimuth
Elevation
Range (km)
Doppler Factor

Next 0 passes for location: London (51.5072 / 0.1276)

Sorry there are no passes over London.